sat.trackr.live / text

‹ back to catalog

STARLINK-37768

NORAD 69331 · 2026-122C

PAYLOAD ACTIVE UNKNOWN

§ Identity

Operator
Country
US
Launch date
2026-06-03
Launch site
AFWTR
Launch vehicle
Mass (kg)
RCS (m²)

Purposes: comms

External: N2YO · Heavens-Above · Gunter

§ Orbital elements

Epoch: 2026-09-19T12:17:16.021536Z

Period
93.91 min
Inclination
97.2839°
Eccentricity
0.0001343
Mean motion
15.33448214 rev/d
Perigee alt
464.6 km
Apogee alt
466.5 km
Semi-major
6,843.7 km
B*
4.1396e-4
RAAN
291.0792°
Arg perigee
94.2939°
Mean anomaly
265.8458°
Rev number
1,664

§ Raw data

STARLINK-377681 69331U 26122C   26262.51199099  .00013314  00000+0  41396-3 0  99932 69331  97.2839 291.0792 0001343  94.2939 265.8458 15.33448214 16649

JSON: /api/v1/satellites/69331 · /tle

For live sub-satellite position, see the globe view (requires WebGL).

§ Visibility from observer

Set your observer location to see the next 7 days of passes ≥ 10°. The values pass through the URL so the page stays shareable.

No JS? Fill the form by hand. The geolocation button needs JavaScript.